Weather in Chingola

Zambia     12°31′31″S   27°52′31″E
temp.,
°C
wind,
m/s
gust,
m/s
humid.,
%
clouds,
%
prec.,
mm/h
press.,
hPa
HPBL,
m
21 october, thu
thu2123:00+19se4115799 0.0 1016614
02:00+17se31170100 0.0 1015493
05:00+16ese21177100 0.0 1016429
08:00+22e595477 0.0 1017872
11:00+29ene44327 0.0 10132144
14:00+33e232199 0.0 10083512
17:00+28ese1231100 0.0 10091135
20:00+24ene224057 0.0 101233
22 october, fri
fri2223:00+21ese3105125 0.0 1014460
02:00+18e286763 0.0 1013245
05:00+16ene3117425 0.0 1014374
08:00+23ene485048 0.0 1015731
11:00+31ne32285 0.0 10122067
14:00+35ese22189 0.0 10073585
17:00+33sse221923 0.0 10063239
20:00+28sse11267 0.0 100811
23 october, sat
sat2323:00+23sse22388 0.0 101130
02:00+21nnw254318 0.0 101173
05:00+19n004721 0.0 101211
08:00+26w23415 0.0 1014575
11:00+35n222329 0.0 10112775
14:00+30sse3427100 0.0 1008708
17:00+28sw113366 0.0 100820
20:00+23wnw114272 0.0 101011
24 october, sun
sun2423:00+23sw224594 0.0 101137
02:00+22sw265096 0.0 1011143
05:00+21w255593 0.0 1013159
08:00+26sw4546100 0.0 1013525
11:00+35se242298 0.0 10103182
14:00+33ene4423100 0.0 10062690
17:00+30sw122848 0.0 100584
20:00+26n253665 0.0 100989
25 october, mon
mon2523:00+25nnw253999 0.0 1010103
02:00+22wnw224872 0.0 101035
05:00+23wnw2249100 0.0 101166
08:00+28ese033666 0.0 1013574
11:00+32ene672130 0.0 10122342
14:00+35ene671527 0.0 10064004
17:00+34ese461610 0.0 10043377
20:00+26se222915 0.0 100838